Weather History for Port Angeles, WA

Change the Weather History Date:

Monday, December 30, 2013

  Actual Average Record
Temperature  
Mean Temperature 40 °F -  
Max Temperature 46 °F 43 °F 55 °F (1952)
Min Temperature 35 °F 34 °F 12 °F (1968)
Degree Days  
Heating Degree Days 24    
Moisture  
Dew Point 39 °F    
Average Humidity 89    
Maximum Humidity 100    
Minimum Humidity 79    
Precipitation  
Precipitation 0.00 in - - ()
Sea Level Pressure  
Sea Level Pressure 30.18 in    
Wind  
Wind Speed 2 mph (West)    
Max Wind Speed 6 mph    
Max Gust Speed -    
Visibility 10 miles    
Events Rain    
Averages and records for this station are not official NWS values.
T = Trace of Precipitation, MM = Missing Value Source: NWS Daily Summary

Daily Weather History Graph

Daily Weather History Graph

Search for Another Location

Airport:

Trip Planner

Search our weather history database for the weather conditions in past years. The results will help you decide how hot, cold, wet, or windy it might be!

Date:

Astronomy

Dec. 30, 2013 Rise Set
Actual Time 8:04 AM PST 4:29 PM PST
Civil Twilight 7:27 AM PST 5:05 PM PST
Nautical Twilight 6:48 AM PST 5:45 PM PST
Astronomical Twilight 6:10 AM PST 6:23 PM PST
Moon 5:56 AM PST (12/30) 3:11 PM PST (12/30)
Length of Visible Light 9h 37m
Length of Day
8h 25m
Waning Crescent, 4% of the Moon is Illuminated
Dec 30
Waning Crescent
Jan 1
New
Jan 7
First Quarter
Jan 15
Full
Jan 23
Last Quarter

Hourly Weather History & Observations

Time (PST) Temp. Windchill Dew Point Humidity Pressure Visibility Wind Dir Wind Speed Gust Speed Precip Events Conditions
12:53 AM 39.0 °F - 37.0 °F 93% 30.31 in 10.0 mi North - - N/A   Overcast
1:53 AM 37.9 °F - 36.0 °F 93% 30.30 in 10.0 mi North - - N/A   Partly Cloudy
2:53 AM 35.1 °F - 35.1 °F 100% 30.29 in 10.0 mi North - - N/A   Partly Cloudy
3:53 AM 37.0 °F - 36.0 °F 96% 30.27 in 10.0 mi North - - N/A   Mostly Cloudy
4:53 AM 39.0 °F - 37.0 °F 93% 30.24 in 10.0 mi North - - N/A   Mostly Cloudy
5:53 AM 39.9 °F - 37.9 °F 93% 30.24 in 10.0 mi North - - N/A   Mostly Cloudy
6:05 AM 39.9 °F - 37.9 °F 93% 30.23 in 10.0 mi North - - N/A   Overcast
6:14 AM 39.9 °F - 37.9 °F 93% 30.22 in 10.0 mi North - - N/A   Overcast
6:53 AM 39.9 °F - 37.9 °F 93% 30.21 in 10.0 mi North - - N/A   Scattered Clouds
7:53 AM 42.1 °F - 39.0 °F 89% 30.19 in 10.0 mi North - - N/A   Mostly Cloudy
8:01 AM 42.1 °F 40.2 °F 39.0 °F 89% 30.19 in 10.0 mi NW 3.5 mph - N/A   Overcast
8:15 AM 39.9 °F 35.8 °F 37.9 °F 93% 30.18 in 10.0 mi South 5.8 mph - N/A   Mostly Cloudy
8:51 AM 39.2 °F - 37.4 °F 93% 30.18 in 10.0 mi Calm Calm - N/A   Scattered Clouds
8:53 AM 39.9 °F - 37.9 °F 93% 30.19 in 10.0 mi Calm Calm - N/A   Scattered Clouds
9:18 AM 41.0 °F - 39.0 °F 93% 30.19 in 10.0 mi Calm Calm - N/A   Mostly Cloudy
9:53 AM 42.1 °F - 39.9 °F 92% 30.18 in 10.0 mi Calm Calm - N/A   Scattered Clouds
10:53 AM 44.1 °F - 39.9 °F 85% 30.17 in 10.0 mi Calm Calm - N/A   Clear
11:23 AM 44.1 °F 41.5 °F 39.9 °F 85% 30.17 in 10.0 mi NNW 4.6 mph - N/A   Scattered Clouds
11:33 AM 44.1 °F 42.5 °F 39.9 °F 85% 30.17 in 10.0 mi Variable 3.5 mph - N/A   Mostly Cloudy
11:43 AM 44.1 °F 40.8 °F 39.9 °F 85% 30.18 in 10.0 mi WNW 5.8 mph - N/A   Overcast
11:50 AM 44.6 °F 43.1 °F 39.2 °F 81% 30.18 in 10.0 mi West 3.5 mph - N/A   Overcast
11:53 AM 44.1 °F - 39.9 °F 85% 30.18 in 10.0 mi Calm Calm - N/A   Mostly Cloudy
12:01 PM 44.1 °F 42.5 °F 39.9 °F 85% 30.17 in 10.0 mi West 3.5 mph - N/A   Mostly Cloudy
12:18 PM 44.1 °F 41.5 °F 39.9 °F 85% 30.17 in 10.0 mi WNW 4.6 mph - N/A   Scattered Clouds
12:53 PM 44.1 °F - 39.9 °F 85% 30.16 in 10.0 mi Calm Calm - N/A   Partly Cloudy
1:22 PM 45.0 °F - 39.9 °F 82% 30.14 in 10.0 mi Calm Calm - N/A   Scattered Clouds
1:53 PM 46.0 °F - 39.9 °F 79% 30.14 in 10.0 mi Calm Calm - N/A   Scattered Clouds
2:53 PM 46.0 °F - 41.0 °F 83% 30.14 in 10.0 mi Calm Calm - N/A   Overcast
3:53 PM 44.1 °F 42.5 °F 41.0 °F 89% 30.12 in 10.0 mi North 3.5 mph - N/A   Mostly Cloudy
4:53 PM 43.0 °F - 39.9 °F 89% 30.13 in 10.0 mi Calm Calm - N/A   Overcast
5:42 PM 42.1 °F 40.2 °F 39.9 °F 92% 30.14 in 10.0 mi West 3.5 mph - 0.00 in   Overcast
5:53 PM 43.0 °F - 41.0 °F 93% 30.14 in 10.0 mi Calm Calm - 0.00 in   Overcast
6:53 PM 45.0 °F 42.6 °F 39.9 °F 82% 30.15 in 10.0 mi West 4.6 mph - 0.00 in Rain Light Rain
7:44 PM 44.1 °F - 41.0 °F 89% 30.15 in 10.0 mi Calm Calm - 0.00 in   Overcast
7:53 PM 44.1 °F - 41.0 °F 89% 30.16 in 10.0 mi Calm Calm - 0.00 in   Overcast
8:07 PM 45.0 °F 43.5 °F 41.0 °F 86% 30.16 in 10.0 mi WSW 3.5 mph - N/A   Overcast
8:53 PM 45.0 °F 43.5 °F 41.0 °F 86% 30.16 in 10.0 mi WSW 3.5 mph - N/A   Overcast
9:29 PM 45.0 °F 41.8 °F 41.0 °F 86% 30.15 in 10.0 mi WSW 5.8 mph - 0.00 in   Overcast
9:53 PM 44.1 °F 40.8 °F 41.0 °F 89% 30.17 in 10.0 mi WSW 5.8 mph - 0.00 in   Overcast
10:53 PM 43.0 °F - 41.0 °F 93% 30.17 in 10.0 mi North - - 0.00 in   Overcast
11:53 PM 43.0 °F 40.3 °F 41.0 °F 93% 30.17 in 8.0 mi SE 4.6 mph - 0.00 in   Overcast